Regional Weather Roundup
Issued by NWS Sioux Falls, SD

Home | Current Version | Previous Version | Graphics & Text | Print | Product List | Glossary Off
Versions: 1 2 3 4 5 6 7 8 9 10 11 12 13 14 15 16 17 18 19 20 21 22 23 24 25 26 27 28 29 30 31 32 33 34 35 36 37 38 39 40 41 42 43 44 45 46 47 48 49 50

000
ASUS43 KFSD 290410
RWRFSD

WEATHER ROUNDUP FOR SE SOUTH DAKOTA/SW MINNESOTA/NW IOWA
NATIONAL WEATHER SERVICE SIOUX FALLS SD
1100 PM CDT THU APR 28 2016

NOTE: "FAIR" INDICATES FEW OR NO CLOUDS BELOW 12,000 FEET WITH NO
SIGNIFICANT WEATHER AND OR OBSTRUCTIONS TO VISIBILITY.


SDZ038>040-050-052>070-290500-
SOUTHEAST SOUTH DAKOTA

CITY           SKY/WX    TMP DP  RH WIND       PRES   REMARKS
BROOKINGS      MOCLDY    38  36  92 E7        30.12R
CHAMBERLAIN    CLOUDY    43  39  87 N3        30.12F
HURON          CLOUDY    39  36  89 NE5       30.14S
MADISON        CLOUDY    36  36 100 NE7       30.12S
MITCHELL       CLOUDY    40  36  86 NE9       30.13F
SIOUX FALLS    CLOUDY    39  35  86 NE5       30.11S
WINNER         CLOUDY    43  38  82 NE3       30.12S
YANKTON        CLOUDY    41  37  87 N6        30.10S
$$

MNZ071-072-080-081-089-090-097-098-290500-
SOUTHWEST MINNESOTA

CITY           SKY/WX    TMP DP  RH WIND       PRES   REMARKS
FAIRMONT       CLOUDY    39  30  70 NE12      30.09S
JACKSON        CLOUDY    39  36  87 NE9       30.10R
LUVERNE        CLOUDY    37  36  93 CALM      30.11S
MARSHALL       CLOUDY    40  37  89 E7        30.14S
MONTEVIDEO     DRIZZLE   39  39 100 S5        30.15F
PIPESTONE      CLOUDY    39  37  93 NE5       30.10R
REDWOOD FALLS  CLOUDY    39  36  89 E3        30.14R
TRACY          CLOUDY    39  39  98 NE8       30.13S
WINDOM         CLOUDY    39  37  93 NE10      30.10S
WORTHINGTON    CLOUDY    38  37  97 NE7       30.11R FOG
$$

IAZ001>003-012>014-020>022-031-032-NEZ013-014-SDZ071-290500-
NORTHWEST IOWA

CITY           SKY/WX    TMP DP  RH WIND       PRES   REMARKS
CHEROKEE       CLOUDY    41  39  93 N7        30.10R
DENISON        CLOUDY    43  41  93 N9        30.07S FOG
ESTHERVILLE    CLOUDY    39  37  92 N7        30.09S
LE MARS        CLOUDY    43  39  87 N8        30.12R
ORANGE CITY    CLOUDY    39  37  93 NE6       30.10R
SHELDON        CLOUDY    39  39 100 N9        30.09R FOG
SIOUX CITY     CLOUDY    45  39  79 N8        30.10S
SPENCER        CLOUDY    40  37  89 NE9       30.10R
STORM LAKE     MIX PCPN  41  39  93 N9        30.09R
$$

ABBREVIATIONS USED IN REMARKS
   TC - TEMPERATURE IN CELSIUS
  WCI - WIND CHILL INDEX
   HX - HEAT INDEX
  VSB - VISIBILITY





USA.gov is the U.S. government's official web portal to all federal, state and local government web resources and services.